Weather in Vladimirovka

Russia / Sakhalin District     50°36′27″N   142°11′03″E
temp.,
°C
wind,
m/s
gust,
m/s
humid.,
%
clouds,
%
prec.,
mm/h
press.,
hPa
HPBL,
m
8 may, sat
sat823:00+3ene239887 0.1 100458
02:00+3e339991 0.0 100371
05:00+3e3399100 0.0 100282
08:00+4e349897 0.0 1002215
11:00+7e2484100 0.0 1000390
14:00+10e2478100 0.1 1001578
17:00+11ene1376100 0.1 1000785
20:00+8ne2290100 0.0 100242
9 may, sun
sun923:00+3ene3396100 0.0 100351
02:00+2ene3391100 0.0 100459
05:000ene3393100 0.0 100461
08:00+2ene3491100 0.0 1005144
11:00+5ne2581100 0.0 1005488
14:00+9nne3672100 0.0 1003915
17:00+5nne4781100 0.0 1004532
20:00+2ne41191100 0.1 1004445
10 may, mon
mon1023:000ne3792100 0.1 1005345
02:00−1ne359451 0.0 1004206
05:00−1ne359563 0.0 1004201
08:00+1ne358733 0.0 1005269
11:00+6ne3672100 0.0 1004722
14:00+7ene4873100 0.1 1006911
17:00+6ne4769100 0.2 1007805
20:00+3ne3678100 0.0 1010547
11 may, tue
tue1123:00−1ene2389100 0.0 1013110
02:00−1ne2388100 0.0 1015119
05:00−3ene2388100 0.0 1016101
08:000ene2367100 0.0 1017183
11:00+7ne124180 0.0 1017721
14:00+10nnw223899 0.0 10161413
17:00+9wnw124770 0.0 10161057
20:00+5e11675 0.0 101791
12 may, wed
wed1223:00+1e22795 0.0 101918
02:000sse22915 0.0 102024
05:00−1s22896 0.0 102145
08:00+2ssw23606 0.0 1021248
11:00+6sw34455 0.0 1020614
14:00+7sw35535 0.0 1018570
17:00+6sw37554 0.0 1018500
20:00+5ssw26664 0.0 1018320